User: anonymous   Login
Location: Unspecified
(42.0334°N, 93.6656°W)
Time: 21:16:02
(UTC-05:00)
Language:

Iridium 63 - Orbit

View from above orbital plane
View from above orbital plane
View from above satellite
View from above satellite

Ground track
Ground track

The orbit data is extracted from the following two-line orbital elements,

1 25286U 98021B   15213.38194279  .00000210  00000-0  67649-4 0  9997
2 25286 086.4033 150.9608 0002322 090.8975 022.8726 14.34485343906725
Epoch (UTC): 01 August 2015 09:09:59
Eccentricity: 0.0002322
inclination: 86.4033°
perigee height: 775 km
apogee height: 778 km
right ascension of ascending node: 150.9608°
argument of perigee: 90.8975°
revolutions per day: 14.34485343
mean anomaly at epoch: 22.8726°
orbit number at epoch: 90672

The dashed part of the orbit path shows where the satellite is in the earth's shadow,  

DLR